User: anonymous   Login
Location: Unspecified
(0.0000°N, 0.0000°E)
Time: 19:46:27
(UTC+00:00)
Language:

GONETS M 12 (M22) - Orbit

View from above orbital plane
View from above orbital plane
View from above satellite
View from above satellite

Ground track
Ground track

The orbit data is extracted from the following two-line orbital elements,

1 40553U 15020B   21025.73864392  .00000019  00000-0  67857-4 0  9994
2 40553  82.4885 178.0092 0014613 323.8213  36.1877 12.42873634264237
Epoch (UTC): 25 January 2021 17:43:38
Eccentricity: 0.0014613
inclination: 82.4885°
perigee height: 1483 km
apogee height: 1506 km
right ascension of ascending node: 178.0092°
argument of perigee: 323.8213°
revolutions per day: 12.42873634
mean anomaly at epoch: 36.1877°
orbit number at epoch: 26423

The dashed part of the orbit path shows where the satellite is in the earth's shadow,  

DLR